Preview of NWS' New Version of Forecast
This preview is not operational and should not be used for support decisions.

Regional Weather Roundup (RWR)

Issued by National Weather Service (NWS)

                            
000
ASUS43 KBIS 232010
RWRND 

NORTH DAKOTA REGIONAL WEATHER ROUNDUP
NATIONAL WEATHER SERVICE BISMARCK ND
200 PM CST SAT FEB 23 2019

NOTE: "FAIR" INDICATES FEW OR NO CLOUDS BELOW 12,000 FEET WITH NO
SIGNIFICANT WEATHER AND/OR OBSTRUCTIONS TO VISIBILITY.


NDZ001>003-009>011-017-232100-
NORTHWEST NORTH DAKOTA
  
CITY           SKY/WX    TMP DP  RH WIND       PRES   REMARKS
WILLISTON      SUNNY     11   3  70 NW15      29.94S WCI  -5          
MINOT          SUNNY     16   6  65 W13       29.88S WCI   2          
MINOT AFB      SUNNY     14   6  71 NW13        N/A  WCI   0          
$$
 
NDZ018>021-031>035-040>046-232100-
SOUTHWEST NORTH DAKOTA
  
CITY           SKY/WX    TMP DP  RH WIND       PRES   REMARKS
BISMARCK       PTSUNNY   17   7  64 W9        29.90F WCI   6          
DICKINSON      SUNNY     21  11  65 W16       29.85F WCI   7          
GARRISON         N/A     11   6  81 W8        29.87F WCI  -1          
HETTINGER ARPT SUNNY     20  12  71 W16       29.87F WCI   6          
$$
 
NDZ004>008-012>016-024-026-027-054-232100-
NORTHEAST NORTH DAKOTA
  
CITY           SKY/WX    TMP DP  RH WIND       PRES   REMARKS
GRAND FORKS    PTSUNNY   18  11  74 NW7       29.89S WCI   9          
GRND FRKS AFB  MOSUNNY   19  11  70 NW7       29.89S WCI  10          
DEVILS LAKE    SUNNY     11   8  88 NW9       29.87F WCI  -2          
$$
 
NDZ022-023-025-028>030-036>039-047>053-232100-
SOUTHEAST NORTH DAKOTA
  
CITY           SKY/WX    TMP DP  RH WIND       PRES   REMARKS
FARGO          PTSUNNY   23  19  85 NW9       29.87F FOG     WCI  13  
JAMESTOWN      CLOUDY    15  10  80 NW8       29.85F WCI   4          
$$